Вернуться в каталог

COSMOS 2499 DEB

АктивенPO
NORAD 55717·DEBRIS·🇷🇺 Russia

Запущен May 23, 2014 с Plesetsk Cosmodrome

Loading…

Ближайшие Пролёты (ближайшие 24 часа)

TLE

СвежийSource: Space-Track

Эпоха: Sep 14, 2026, 12:18 UTC

1 55717U 14028AD  26257.51258681  .00002265  00000-0  81705-2 0  9996
2 55717  82.3633 179.6983 0198307 145.8086 215.5977 12.87699076172680

Отслеживайте COSMOS 2499 DEB в реальном времени с AllMySat

Download on the App Store